STARLINK-32195, 60440

Orbit data source: Space-Track

STARLINK-32195, 60440 is a payload satellite owned by SpaceX/Seattle (US) in LEO that was launched on Mon, 12 Aug 2024 UTC via an FALCON 9 launch vehicle from the Air Force Eastern Test Range (AFETR). Payload-class satellites include a variety of spacecraft equipped with specific instruments for various scientific and technological missions. These include communications satellites like Starlink; space stations such as the ISS; scientific satellites like the Hubble; Earth observation satellites from companies like Planet Labs, Umbra, and HawkEye 360; GPS; miniature CubeSats for education and research; and military/defense satellites.

Loading next visibility...
Identifier
60440, 2024-144R
Orbit
LEO
Country
Flag of USUS
Related business
Manufacturer
SpaceX/Seattle
Mission
Operational Commercial Communications
Bus & Motor
STARLINK V2M, Unknown motor
Mass
730 kg wet, ~700 kg dry
Launch date (UTC)
2024-08-12 (2 years ago)
Launch vehicle
FALCON 9
Launch site
Air Force Eastern Test Range (AFETR)
Object type
Payload
Rocket body
Debris
Shape & HBR
Box + 2 Pan, 17.7 m
Radar Cross Section
33.884 m², Large (>1 m²)

Expand to show TLE details & history
Last TLE update: 21 hours ago

TLE from 21 hours ago
0 STARLINK-32195
1 60440U 24144R   26170.96592076 -.00000027  00000-0  10351-4 0  9993
2 60440  53.1609 100.2614 0001451 112.5522 247.5634 15.34398206104998
Epoch: 2026-06-19T23:10Z
TLE epoch observation values (Epoch: 2026-06-19T23:10:55.553Z)
Latitude
-0.00005°
Longitude
-155.65743°
Altitude
463.989 km
Speed
7.635 km/s
True Right ascension
06h 41m 02s
True Declination
0° 00' 00"
Sunlit
Object was in daylight at epoch
Visualization orbit readout
Latitude
Unknown
Longitude
Unknown
Altitude
Unknown
Speed
Unknown
Apparent Right ascension
Unknown
Apparent Declination
Unknown
Sunlit
N/A
Visualization observer readout
Local Sidereal Time
07:14:56
Azimuth
Unknown
Elevation
Unknown
Doppler factor
Unknown
Orbital elements
Apogee altitude
463.958 km
Perigee altitude
461.973 km
Semi-major axis
6,841.102 km
Eccentricity
0.00015
Inclination
53.1609°
RAAN
100.2614°
Arg. of periapsis
112.5522°
True anomaly
247.54803°
Mean anomaly
247.5634°
Eccentric anomaly
247.55572°
Mean motion
3.83578 °/min
Orbital period
93.85 mins
BSTAR
0.000010351
Loading maneuver chart data...
Computing Atmospheric mass density...
Loading historical data...
Loading historical data...
Loading historical data...
Loading historical data...
Loading historical data...
Loading historical data...
Loading historical data...

Documentation

Showing up to 5 results
|